,,Stat6,,Stat2,,Stat8,,Stat9,,Stat10,,Wind1,,Wind1,
time,status,PA1M_AVG,status,PR1M_SUM,status,RH1M_AVG,status,SR1M_AVG,status,TA1M_AVG,status,W1dAve1m,status,W1sAve1m,
2004-05-23, 00:00:00,VALID,918.747,VALID,0,VALID,97.424,VALID,0.0169808,VALID,20.527,VALID,21,VALID,0.873857,
2004-05-23, 00:01:00,VALID,918.748,VALID,0,VALID,97.4863,VALID,0.0169808,VALID,20.5467,VALID,31,VALID,0.753348,
2004-05-23, 00:02:00,VALID,918.73,VALID,0,VALID,97.5511,VALID,0,VALID,20.5757,VALID,31,VALID,0.376389,
2004-05-23, 00:03:00,VALID,918.725,VALID,0,VALID,97.4265,VALID,0.0169808,VALID,20.5984,VALID,31,VALID,0,
2004-05-23, 00:04:00,VALID,918.686,VALID,0,VALID,97.2561,VALID,0.0169808,VALID,20.5884,VALID,50,VALID,0.24442,
2004-05-23, 00:05:00,VALID,918.663,VALID,0,VALID,97.0311,VALID,-0.0169808,VALID,20.5795,VALID,190,VALID,0.407203,
2004-05-23, 00:06:00,VALID,918.621,VALID,0,VALID,96.9306,VALID,-0.0169808,VALID,20.5569,VALID,190,VALID,0.366279,
2004-05-23, 00:07:00,VALID,918.593,VALID,0,VALID,97.0234,VALID,0,VALID,20.5311,VALID,189,VALID,0.25071,
2004-05-23, 00:08:00,VALID,918.574,VALID,0,VALID,97.143,VALID,0,VALID,20.5311,VALID,189,VALID,0,
2004-05-23, 00:09:00,VALID,918.557,VALID,0,VALID,97.279,VALID,-0.0169808,VALID,20.5276,VALID,189,VALID,0.0213068,
2004-05-23, 00:10:00,VALID,918.558,VALID,0,VALID,97.4291,VALID,-0.0339617,VALID,20.534,VALID,189,VALID,0.357558,
2004-05-23, 00:11:00,VALID,918.564,VALID,0,VALID,97.471,VALID,-0.0339617,VALID,20.5537,VALID,189,VALID,0.139931,
2004-05-23, 00:12:00,VALID,918.549,VALID,0,VALID,97.3896,VALID,-0.0169808,VALID,20.5502,VALID,189,VALID,0.164063,
2004-05-23, 00:13:00,VALID,918.533,VALID,0,VALID,97.4062,VALID,-0.0169808,VALID,20.5472,VALID,189,VALID,0.0446948,
2004-05-23, 00:14:00,VALID,918.522,VALID,0,VALID,97.4736,VALID,-0.0509425,VALID,20.5504,VALID,189,VALID,0,
2004-05-23, 00:15:00,VALID,918.488,VALID,0,VALID,97.4863,VALID,-0.0169808,VALID,20.5537,VALID,189,VALID,0,
2004-05-23, 00:16:00,VALID,918.464,VALID,0,VALID,97.4214,VALID,0,VALID,20.5569,VALID,189,VALID,0.0257241,
2004-05-23, 00:17:00,VALID,918.436,VALID,0,VALID,97.41,VALID,0,VALID,20.5469,VALID,189,VALID,0.20419,
2004-05-23, 00:18:00,VALID,918.415,VALID,0,VALID,97.4901,VALID,0,VALID,20.5469,VALID,189,VALID,0.201672,
2004-05-23, 00:19:00,VALID,918.412,VALID,0,VALID,97.4863,VALID,0,VALID,20.5405,VALID,189,VALID,0.129002,
2004-05-23, 00:20:00,VALID,918.411,VALID,0,VALID,97.5054,VALID,-0.0169808,VALID,20.5375,VALID,189,VALID,0,
2004-05-23, 00:21:00,VALID,918.409,VALID,0,VALID,97.5855,VALID,-0.0169808,VALID,20.5405,VALID,189,VALID,0,
2004-05-23, 00:22:00,VALID,918.413,VALID,0,VALID,97.5372,VALID,-0.0169808,VALID,20.5504,VALID,189,VALID,0,
2004-05-23, 00:23:00,VALID,918.418,VALID,0,VALID,97.5041,VALID,0.0169808,VALID,20.5437,VALID,189,VALID,0.0222656,
2004-05-23, 00:24:00,VALID,918.411,VALID,0,VALID,97.5194,VALID,0,VALID,20.5472,VALID,189,VALID,0.280362,
2004-05-23, 00:25:00,VALID,918.401,VALID,0,VALID,97.4736,VALID,0,VALID,20.5273,VALID,189,VALID,0.357195,
2004-05-23, 00:26:00,VALID,918.401,VALID,0,VALID,97.4837,VALID,0,VALID,20.5214,VALID,189,VALID,0.452714,
2004-05-23, 00:27:00,VALID,918.397,VALID,0,VALID,97.4507,VALID,0,VALID,20.4853,VALID,189,VALID,0.610119,
2004-05-23, 00:28:00,VALID,918.391,VALID,0,VALID,97.4532,VALID,0,VALID,20.4501,VALID,190,VALID,0.57066,
2004-05-23, 00:29:00,VALID,918.387,VALID,0,VALID,97.6033,VALID,0,VALID,20.4081,VALID,289,VALID,0.690518,
2004-05-23, 00:30:00,VALID,918.391,VALID,0,VALID,97.8589,VALID,-0.0169808,VALID,20.3979,VALID,20,VALID,0.888263,
2004-05-23, 00:31:00,VALID,918.408,VALID,0,VALID,98.0789,VALID,0,VALID,20.4178,VALID,24,VALID,0.802912,
2004-05-23, 00:32:00,VALID,918.402,VALID,0,VALID,98.1679,VALID,0,VALID,20.4205,VALID,28,VALID,0.746271,
2004-05-23, 00:33:00,VALID,918.412,VALID,0,VALID,98.2149,VALID,0,VALID,20.4536,VALID,26,VALID,0.393415,
2004-05-23, 00:34:00,VALID,918.401,VALID,0,VALID,98.0979,VALID,-0.0169808,VALID,20.4441,VALID,11,VALID,0.360518,
2004-05-23, 00:35:00,VALID,918.42,VALID,0,VALID,98.0814,VALID,-0.0339617,VALID,20.4441,VALID,11,VALID,0.30888,
2004-05-23, 00:36:00,VALID,918.433,VALID,0,VALID,98.0102,VALID,-0.0509425,VALID,20.4111,VALID,11,VALID,0.462391,
2004-05-23, 00:37:00,VALID,918.434,VALID,0,VALID,98.1183,VALID,0,VALID,20.4083,VALID,11,VALID,0.293403,
2004-05-23, 00:38:00,VALID,918.452,VALID,0,VALID,98.2264,VALID,-0.0169808,VALID,20.4083,VALID,11,VALID,0.279615,
2004-05-23, 00:39:00,VALID,918.459,VALID,0,VALID,98.2989,VALID,-0.0169808,VALID,20.4148,VALID,11,VALID,0.118823,
2004-05-23, 00:40:00,VALID,918.461,VALID,0,VALID,98.4069,VALID,-0.0339617,VALID,20.4444,VALID,11,VALID,0,
2004-05-23, 00:41:00,VALID,918.461,VALID,0,VALID,98.4502,VALID,0,VALID,20.4503,VALID,11,VALID,0.0161345,
2004-05-23, 00:42:00,VALID,918.461,VALID,0,VALID,98.482,VALID,-0.0339617,VALID,20.4866,VALID,11,VALID,0.0569196,
2004-05-23, 00:43:00,VALID,918.445,VALID,0,VALID,98.4934,VALID,-0.0509425,VALID,20.499,VALID,11,VALID,0.233467,
2004-05-23, 00:44:00,VALID,918.439,VALID,0,VALID,98.5074,VALID,-0.0339617,VALID,20.5278,VALID,10,VALID,0.405342,
2004-05-23, 00:45:00,VALID,918.44,VALID,0,VALID,98.4553,VALID,-0.0339617,VALID,20.5343,VALID,9,VALID,0.0255682,
2004-05-23, 00:46:00,VALID,918.445,VALID,0,VALID,98.468,VALID,-0.0509425,VALID,20.5601,VALID,9,VALID,0.106707,
2004-05-23, 00:47:00,VALID,918.445,VALID,0,VALID,98.4324,VALID,0,VALID,20.5862,VALID,9,VALID,0.0257994,
2004-05-23, 00:48:00,VALID,918.443,VALID,0,VALID,98.3599,VALID,-0.0169808,VALID,20.5924,VALID,9,VALID,0.00130208,
2004-05-23, 00:49:00,VALID,918.438,VALID,0,VALID,98.3014,VALID,-0.0169808,VALID,20.5889,VALID,9,VALID,0.0123857,
2004-05-23, 00:50:00,VALID,918.408,VALID,0,VALID,98.2187,VALID,0,VALID,20.5892,VALID,9,VALID,0.338605,
2004-05-23, 00:51:00,VALID,918.392,VALID,0,VALID,98.1768,VALID,-0.0169808,VALID,20.5854,VALID,9,VALID,0.450707,
2004-05-23, 00:52:00,VALID,918.349,VALID,0,VALID,98.1704,VALID,-0.0339617,VALID,20.573,VALID,9,VALID,0.438953,
2004-05-23, 00:53:00,VALID,918.325,VALID,0,VALID,98.2518,VALID,0,VALID,20.5698,VALID,9,VALID,0.154474,
2004-05-23, 00:54:00,VALID,918.305,VALID,0,VALID,98.2976,VALID,0,VALID,20.58,VALID,10,VALID,0.405134,
2004-05-23, 00:55:00,VALID,918.278,VALID,0,VALID,98.3497,VALID,-0.0169808,VALID,20.5663,VALID,11,VALID,0.400347,
2004-05-23, 00:56:00,VALID,918.244,VALID,0,VALID,98.3001,VALID,-0.0339617,VALID,20.5405,VALID,2,VALID,0.0708841,
2004-05-23, 00:57:00,VALID,918.251,VALID,0,VALID,98.337,VALID,-0.0169808,VALID,20.5442,VALID,194,VALID,0.393643,
2004-05-23, 00:58:00,VALID,918.218,VALID,0,VALID,98.3866,VALID,-0.0509425,VALID,20.5243,VALID,169,VALID,0.594271,
2004-05-23, 00:59:00,VALID,918.214,VALID,0,VALID,98.4921,VALID,-0.0169808,VALID,20.5179,VALID,106,VALID,0.680432,
2004-05-23, 01:00:00,VALID,918.211,VALID,0,VALID,98.6498,VALID,-0.0509425,VALID,20.5181,VALID,2,VALID,0.784446,
2004-05-23, 01:01:00,VALID,918.219,VALID,0,VALID,98.6651,VALID,0,VALID,20.5152,VALID,320,VALID,0.27096,
2004-05-23, 01:02:00,VALID,918.212,VALID,0,VALID,98.6358,VALID,0,VALID,20.466,VALID,292,VALID,0.684524,
2004-05-23, 01:03:00,VALID,918.223,VALID,0,VALID,98.7744,VALID,0,VALID,20.4366,VALID,52,VALID,0.773438,
2004-05-23, 01:04:00,VALID,918.223,VALID,0,VALID,98.88,VALID,-0.0169808,VALID,20.4272,VALID,66,VALID,0.64596,
2004-05-23, 01:05:00,VALID,918.226,VALID,0,VALID,98.9715,VALID,0,VALID,20.4046,VALID,38,VALID,0.718217,
2004-05-23, 01:06:00,VALID,918.226,VALID,0,VALID,98.9766,VALID,-0.0169808,VALID,20.3626,VALID,104,VALID,0.390253,
2004-05-23, 01:07:00,VALID,918.177,VALID,0,VALID,98.9219,VALID,0,VALID,20.3303,VALID,79,VALID,1.18733,
2004-05-23, 01:08:00,VALID,918.188,VALID,0,VALID,99.1406,VALID,-0.0169808,VALID,20.3045,VALID,15,VALID,0.835379,
2004-05-23, 01:09:00,VALID,918.152,VALID,0,VALID,99.3149,VALID,0,VALID,20.3005,VALID,341,VALID,0.691501,
2004-05-23, 01:10:00,VALID,918.15,VALID,0,VALID,99.325,VALID,0,VALID,20.2884,VALID,293,VALID,0.169695,
2004-05-23, 01:11:00,VALID,918.129,VALID,0,VALID,99.0796,VALID,0,VALID,20.2725,VALID,80,VALID,0.52753,
2004-05-23, 01:12:00,VALID,918.115,VALID,0,VALID,99.175,VALID,0,VALID,20.224,VALID,7,VALID,1.20443,
2004-05-23, 01:13:00,VALID,918.101,VALID,0,VALID,98.9092,VALID,0,VALID,20.1592,VALID,336,VALID,0.555778,
2004-05-23, 01:14:00,VALID,918.097,VALID,0,VALID,98.8558,VALID,0.0169808,VALID,20.1177,VALID,274,VALID,0.197493,
2004-05-23, 01:15:00,VALID,918.09,VALID,0,VALID,98.8024,VALID,0,VALID,20.072,VALID,148,VALID,0.234549,
2004-05-23, 01:16:00,VALID,918.083,VALID,0,VALID,98.777,VALID,0,VALID,20.04,VALID,86,VALID,0.0994665,
2004-05-23, 01:17:00,VALID,918.081,VALID,0,VALID,98.8571,VALID,0,VALID,20.0174,VALID,88,VALID,0.398082,
2004-05-23, 01:18:00,VALID,918.057,VALID,0,VALID,99.0478,VALID,0,VALID,20.0171,VALID,49,VALID,0.621528,
2004-05-23, 01:19:00,VALID,918.049,VALID,0,VALID,99.1839,VALID,0,VALID,20.0402,VALID,11,VALID,0.73952,
2004-05-23, 01:20:00,VALID,918.027,VALID,0,VALID,99.105,VALID,0.0169808,VALID,20.0211,VALID,4,VALID,1.28289,
2004-05-23, 01:21:00,VALID,917.999,VALID,0,VALID,99.1356,VALID,0,VALID,20.0241,VALID,22,VALID,1.25667,
2004-05-23, 01:22:00,VALID,918.003,VALID,0,VALID,99.0008,VALID,0.0169808,VALID,19.9978,VALID,21,VALID,1.44978,
2004-05-23, 01:23:00,VALID,917.983,VALID,0,VALID,98.8774,VALID,0.0169808,VALID,19.9593,VALID,20,VALID,1.22122,
2004-05-23, 01:24:00,VALID,917.981,VALID,0,VALID,98.9703,VALID,0,VALID,19.9461,VALID,1,VALID,0.521205,
2004-05-23, 01:25:00,VALID,917.951,VALID,0,VALID,98.7337,VALID,0.0169808,VALID,19.8942,VALID,24,VALID,0.386541,
2004-05-23, 01:26:00,VALID,917.948,VALID,0,VALID,98.5824,VALID,-0.0339617,VALID,19.8656,VALID,78,VALID,0.302734,
2004-05-23, 01:27:00,VALID,917.935,VALID,0,VALID,98.6791,VALID,0,VALID,19.8468,VALID,349,VALID,0.387835,
2004-05-23, 01:28:00,VALID,917.928,VALID,0,VALID,98.8189,VALID,0.0169808,VALID,19.8204,VALID,22,VALID,1.23278,
2004-05-23, 01:29:00,VALID,917.933,VALID,0,VALID,98.9168,VALID,0,VALID,19.8041,VALID,11,VALID,0.686928,
2004-05-23, 01:30:00,VALID,917.924,VALID,0,VALID,98.9944,VALID,0.0169808,VALID,19.8103,VALID,19,VALID,1.41127,
2004-05-23, 01:31:00,VALID,917.918,VALID,0,VALID,98.8736,VALID,0,VALID,19.7812,VALID,14,VALID,1.61737,
2004-05-23, 01:32:00,VALID,917.916,VALID,0,VALID,98.7058,VALID,0.0169808,VALID,19.7363,VALID,17,VALID,1.89482,
2004-05-23, 01:33:00,VALID,917.907,VALID,0,VALID,98.8227,VALID,0.0339617,VALID,19.73,VALID,22,VALID,1.85605,
2004-05-23, 01:34:00,VALID,917.914,VALID,0,VALID,98.8456,VALID,-0.0509425,VALID,19.7377,VALID,17,VALID,1.6614,
2004-05-23, 01:35:00,VALID,917.912,VALID,0,VALID,98.7782,VALID,-0.0849042,VALID,19.7251,VALID,19,VALID,1.83861,
2004-05-23, 01:36:00,VALID,917.92,VALID,0,VALID,98.6269,VALID,-0.101885,VALID,19.6866,VALID,16,VALID,1.09859,
2004-05-23, 01:37:00,VALID,917.906,VALID,0,VALID,98.6206,VALID,-0.101885,VALID,19.6538,VALID,357,VALID,1.13207,
2004-05-23, 01:38:00,VALID,917.896,VALID,0,VALID,98.5888,VALID,-0.0849042,VALID,19.6151,VALID,23,VALID,1.67406,
2004-05-23, 01:39:00,VALID,917.898,VALID,0,VALID,98.7058,VALID,-0.101885,VALID,19.5927,VALID,19,VALID,0.672585,
2004-05-23, 01:40:00,VALID,917.903,VALID,0,VALID,98.7655,VALID,-0.0679233,VALID,19.6123,VALID,14,VALID,1.24473,
2004-05-23, 01:41:00,VALID,917.915,VALID,0,VALID,98.7592,VALID,0.0339617,VALID,19.6041,VALID,19,VALID,1.242,
2004-05-23, 01:42:00,VALID,917.92,VALID,0,VALID,98.7223,VALID,0.0169808,VALID,19.5947,VALID,14,VALID,1.75036,
2004-05-23, 01:43:00,VALID,917.944,VALID,0,VALID,98.7528,VALID,0.0169808,VALID,19.5781,VALID,11,VALID,1.55378,
2004-05-23, 01:44:00,VALID,917.958,VALID,0,VALID,98.7706,VALID,0.0339617,VALID,19.5555,VALID,6,VALID,1.84784,
2004-05-23, 01:45:00,VALID,917.949,VALID,0,VALID,98.8545,VALID,0,VALID,19.5301,VALID,14,VALID,1.52616,
2004-05-23, 01:46:00,VALID,917.956,VALID,0,VALID,98.9563,VALID,0.0169808,VALID,19.511,VALID,7,VALID,1.43334,
2004-05-23, 01:47:00,VALID,917.966,VALID,0,VALID,98.8622,VALID,0.0169808,VALID,19.476,VALID,6,VALID,1.55868,
2004-05-23, 01:48:00,VALID,917.967,VALID,0,VALID,99.0644,VALID,0.0169808,VALID,19.4531,VALID,8,VALID,0.986151,
2004-05-23, 01:49:00,VALID,917.96,VALID,0,VALID,98.9842,VALID,0,VALID,19.4107,VALID,342,VALID,1.06831,
2004-05-23, 01:50:00,VALID,917.972,VALID,0,VALID,99.0974,VALID,0,VALID,19.3851,VALID,357,VALID,0.752232,
2004-05-23, 01:51:00,VALID,917.968,VALID,0,VALID,99.2347,VALID,-0.0169808,VALID,19.3883,VALID,21,VALID,1.07552,
2004-05-23, 01:52:00,VALID,917.96,VALID,0,VALID,99.3085,VALID,-0.0169808,VALID,19.395,VALID,16,VALID,0.937881,
2004-05-23, 01:53:00,VALID,917.985,VALID,0,VALID,99.4318,VALID,0.0169808,VALID,19.4075,VALID,8,VALID,0.648047,
2004-05-23, 01:54:00,VALID,917.984,VALID,0,VALID,99.3937,VALID,0,VALID,19.4139,VALID,8,VALID,1.25226,
2004-05-23, 01:55:00,VALID,917.974,VALID,0,VALID,99.1623,VALID,0,VALID,19.3724,VALID,6,VALID,1.64621,
2004-05-23, 01:56:00,VALID,917.974,VALID,0,VALID,99.1966,VALID,0,VALID,19.3521,VALID,11,VALID,1.40313,
2004-05-23, 01:57:00,VALID,917.97,VALID,0,VALID,99.2297,VALID,0,VALID,19.3297,VALID,26,VALID,1.44959,
2004-05-23, 01:58:00,VALID,917.969,VALID,0,VALID,99.3568,VALID,0,VALID,19.3372,VALID,17,VALID,1.13335,
2004-05-23, 01:59:00,VALID,917.969,VALID,0,VALID,99.4433,VALID,0,VALID,19.3429,VALID,18,VALID,0.819404,
2004-05-23, 02:00:00,VALID,917.945,VALID,0,VALID,99.442,VALID,0.0169808,VALID,19.3364,VALID,339,VALID,0.803354,
2004-05-23, 02:01:00,VALID,917.946,VALID,0,VALID,99.4064,VALID,0,VALID,19.327,VALID,22,VALID,0.394717,
2004-05-23, 02:02:00,VALID,917.933,VALID,0,VALID,99.4954,VALID,0,VALID,19.3498,VALID,19,VALID,1.2298,
2004-05-23, 02:03:00,VALID,917.927,VALID,0,VALID,99.4191,VALID,0,VALID,19.3494,VALID,3,VALID,0.982955,
2004-05-23, 02:04:00,VALID,917.904,VALID,0,VALID,99.3543,VALID,0,VALID,19.3496,VALID,5,VALID,0.27072,
2004-05-23, 02:05:00,VALID,917.926,VALID,0,VALID,99.2793,VALID,-0.0339617,VALID,19.3402,VALID,3,VALID,0.647485,
2004-05-23, 02:06:00,VALID,917.948,VALID,0,VALID,99.2818,VALID,0.0169808,VALID,19.3367,VALID,6,VALID,0.961868,
2004-05-23, 02:07:00,VALID,917.96,VALID,0,VALID,99.2068,VALID,-0.0169808,VALID,19.3367,VALID,352,VALID,0.621189,
2004-05-23, 02:08:00,VALID,917.969,VALID,0,VALID,99.2309,VALID,-0.0169808,VALID,19.3632,VALID,27,VALID,1.02055,
2004-05-23, 02:09:00,VALID,917.988,VALID,0,VALID,99.1394,VALID,0,VALID,19.3757,VALID,21,VALID,1.20122,
2004-05-23, 02:10:00,VALID,917.999,VALID,0,VALID,99.0198,VALID,0.0169808,VALID,19.3494,VALID,15,VALID,1.78627,
2004-05-23, 02:11:00,VALID,918.005,VALID,0,VALID,99.0135,VALID,0,VALID,19.3471,VALID,24,VALID,2.24273,
2004-05-23, 02:12:00,VALID,918.011,VALID,0,VALID,99.147,VALID,0,VALID,19.3595,VALID,24,VALID,1.35518,
2004-05-23, 02:13:00,VALID,918.02,VALID,0,VALID,99.0644,VALID,-0.0339617,VALID,19.366,VALID,349,VALID,1.26543,
2004-05-23, 02:14:00,VALID,918.016,VALID,0,VALID,98.9372,VALID,0,VALID,19.3335,VALID,9,VALID,1.50382,
2004-05-23, 02:15:00,VALID,918.014,VALID,0,VALID,98.9868,VALID,0,VALID,19.331,VALID,12,VALID,1.17351,
2004-05-23, 02:16:00,VALID,917.999,VALID,0,VALID,99.1076,VALID,-0.0169808,VALID,19.3275,VALID,27,VALID,0.878551,
2004-05-23, 02:17:00,VALID,917.987,VALID,0,VALID,99.1292,VALID,0,VALID,19.3466,VALID,19,VALID,0.87691,
2004-05-23, 02:18:00,VALID,917.977,VALID,0,VALID,99.0173,VALID,-0.0339617,VALID,19.3434,VALID,24,VALID,0.575408,
2004-05-23, 02:19:00,VALID,917.949,VALID,0,VALID,98.9245,VALID,-0.0339617,VALID,19.3369,VALID,16,VALID,1.24582,
2004-05-23, 02:20:00,VALID,917.945,VALID,0,VALID,98.9677,VALID,0,VALID,19.3372,VALID,10,VALID,0.97745,
2004-05-23, 02:21:00,VALID,917.93,VALID,0,VALID,98.941,VALID,0,VALID,19.3243,VALID,5,VALID,0.762463,
2004-05-23, 02:22:00,VALID,917.902,VALID,0,VALID,98.9982,VALID,0.0169808,VALID,19.3178,VALID,8,VALID,1.52065,
2004-05-23, 02:23:00,VALID,917.894,VALID,0,VALID,99.0631,VALID,0,VALID,19.3245,VALID,20,VALID,1.78533,
2004-05-23, 02:24:00,VALID,917.872,VALID,0,VALID,99.0783,VALID,0,VALID,19.324,VALID,14,VALID,1.68118,
2004-05-23, 02:25:00,VALID,917.852,VALID,0,VALID,98.8749,VALID,-0.0169808,VALID,19.2954,VALID,12,VALID,1.94822,
2004-05-23, 02:26:00,VALID,917.863,VALID,0,VALID,98.9474,VALID,-0.0169808,VALID,19.2957,VALID,3,VALID,1.18369,
2004-05-23, 02:27:00,VALID,917.847,VALID,0,VALID,98.941,VALID,0,VALID,19.2689,VALID,2,VALID,1.5846,
2004-05-23, 02:28:00,VALID,917.858,VALID,0,VALID,99.0516,VALID,0,VALID,19.2758,VALID,12,VALID,1.56699,
2004-05-23, 02:29:00,VALID,917.848,VALID,0,VALID,99.133,VALID,0,VALID,19.2984,VALID,4,VALID,1.09431,
2004-05-23, 02:30:00,VALID,917.846,VALID,0,VALID,99.1813,VALID,0,VALID,19.3081,VALID,1,VALID,1.41463,
2004-05-23, 02:31:00,VALID,917.86,VALID,0,VALID,99.0694,VALID,-0.0169808,VALID,19.2659,VALID,355,VALID,1.00981,
2004-05-23, 02:32:00,VALID,917.853,VALID,0,VALID,99.208,VALID,0,VALID,19.2885,VALID,17,VALID,0.952363,
2004-05-23, 02:33:00,VALID,917.85,VALID,0,VALID,99.1597,VALID,0,VALID,19.2915,VALID,17,VALID,0.658854,
2004-05-23, 02:34:00,VALID,917.845,VALID,0,VALID,99.1915,VALID,0,VALID,19.3148,VALID,16,VALID,0.964844,
2004-05-23, 02:35:00,VALID,917.844,VALID,0,VALID,99.2742,VALID,0,VALID,19.33,VALID,22,VALID,1.17708,
2004-05-23, 02:36:00,VALID,917.835,VALID,0,VALID,99.1902,VALID,0,VALID,19.3595,VALID,13,VALID,1.46166,
2004-05-23, 02:37:00,VALID,917.835,VALID,0,VALID,99.0186,VALID,-0.0169808,VALID,19.3434,VALID,5,VALID,1.47656,
2004-05-23, 02:38:00,VALID,917.834,VALID,0,VALID,98.9003,VALID,-0.0339617,VALID,19.3305,VALID,8,VALID,1.38072,
2004-05-23, 02:39:00,VALID,917.85,VALID,0,VALID,98.8075,VALID,0,VALID,19.3245,VALID,15,VALID,1.88281,
2004-05-23, 02:40:00,VALID,917.852,VALID,0,VALID,98.8596,VALID,0,VALID,19.3247,VALID,22,VALID,1.29021,
2004-05-23, 02:41:00,VALID,917.856,VALID,0,VALID,98.9245,VALID,-0.0339617,VALID,19.3377,VALID,27,VALID,1.33098,
2004-05-23, 02:42:00,VALID,917.854,VALID,0,VALID,98.9207,VALID,0,VALID,19.3372,VALID,12,VALID,1.44095,
2004-05-23, 02:43:00,VALID,917.876,VALID,0,VALID,98.7821,VALID,0,VALID,19.331,VALID,9,VALID,1.0266,
2004-05-23, 02:44:00,VALID,917.864,VALID,0,VALID,98.8329,VALID,0,VALID,19.3411,VALID,12,VALID,0.420785,
2004-05-23, 02:45:00,VALID,917.86,VALID,0,VALID,98.8825,VALID,0,VALID,19.3471,VALID,17,VALID,0.739099,
2004-05-23, 02:46:00,VALID,917.861,VALID,0,VALID,98.9461,VALID,0,VALID,19.3603,VALID,38,VALID,0.646662,
2004-05-23, 02:47:00,VALID,917.85,VALID,0,VALID,99.002,VALID,-0.0169808,VALID,19.3955,VALID,29,VALID,0.311738,
2004-05-23, 02:48:00,VALID,917.866,VALID,0,VALID,98.8698,VALID,0,VALID,19.3948,VALID,29,VALID,0.577009,
2004-05-23, 02:49:00,VALID,917.872,VALID,0,VALID,98.7592,VALID,-0.0509425,VALID,19.3861,VALID,22,VALID,0.652344,
2004-05-23, 02:50:00,VALID,917.875,VALID,0,VALID,98.7401,VALID,-0.0509425,VALID,19.3898,VALID,22,VALID,0.695479,
2004-05-23, 02:51:00,VALID,917.877,VALID,0,VALID,98.7401,VALID,-0.101885,VALID,19.3933,VALID,33,VALID,0.478198,
2004-05-23, 02:52:00,VALID,917.864,VALID,0,VALID,98.5672,VALID,-0.101885,VALID,19.3771,VALID,25,VALID,0.383557,
2004-05-23, 02:53:00,VALID,917.869,VALID,0,VALID,98.5735,VALID,-0.0849042,VALID,19.3642,VALID,24,VALID,0.219122,
2004-05-23, 02:54:00,VALID,917.875,VALID,0,VALID,98.515,VALID,-0.0509425,VALID,19.3707,VALID,13,VALID,0.530692,
2004-05-23, 02:55:00,VALID,917.873,VALID,0,VALID,98.2225,VALID,-0.0849042,VALID,19.3389,VALID,1,VALID,1.05996,
2004-05-23, 02:56:00,VALID,917.898,VALID,0,VALID,98.2785,VALID,-0.0849042,VALID,19.3349,VALID,357,VALID,0.739879,
2004-05-23, 02:57:00,VALID,917.916,VALID,0,VALID,98.173,VALID,-0.101885,VALID,19.3322,VALID,346,VALID,0.620593,
2004-05-23, 02:58:00,VALID,917.918,VALID,0,VALID,98.1424,VALID,-0.101885,VALID,19.3389,VALID,346,VALID,0.645597,
2004-05-23, 02:59:00,VALID,917.928,VALID,0,VALID,98.178,VALID,-0.101885,VALID,19.3329,VALID,356,VALID,0.578646,
2004-05-23, 03:00:00,VALID,917.943,VALID,0,VALID,98.2111,VALID,-0.101885,VALID,19.3384,VALID,4,VALID,0.878018,
2004-05-23, 03:01:00,VALID,917.943,VALID,0,VALID,98.2149,VALID,-0.101885,VALID,19.3227,VALID,358,VALID,0.595109,
2004-05-23, 03:02:00,VALID,917.948,VALID,0,VALID,98.3383,VALID,-0.101885,VALID,19.3063,VALID,10,VALID,0.991097,
2004-05-23, 03:03:00,VALID,917.957,VALID,0,VALID,98.4095,VALID,-0.0509425,VALID,19.3031,VALID,358,VALID,0.639236,
2004-05-23, 03:04:00,VALID,917.94,VALID,0,VALID,98.515,VALID,-0.0509425,VALID,19.2959,VALID,360,VALID,1.30573,
2004-05-23, 03:05:00,VALID,917.96,VALID,0,VALID,98.5239,VALID,0,VALID,19.2892,VALID,292,VALID,0.888445,
2004-05-23, 03:06:00,VALID,917.955,VALID,0,VALID,98.4845,VALID,0.0169808,VALID,19.2783,VALID,207,VALID,0.365473,
2004-05-23, 03:07:00,VALID,917.938,VALID,0,VALID,98.5761,VALID,0,VALID,19.2825,VALID,217,VALID,0.148256,
2004-05-23, 03:08:00,VALID,917.927,VALID,0,VALID,98.6969,VALID,0,VALID,19.3017,VALID,217,VALID,0.102493,
2004-05-23, 03:09:00,VALID,917.932,VALID,0,VALID,98.6676,VALID,0,VALID,19.3046,VALID,232,VALID,0.158482,
2004-05-23, 03:10:00,VALID,917.911,VALID,0,VALID,98.6689,VALID,0,VALID,19.3014,VALID,233,VALID,0.0914418,
2004-05-23, 03:11:00,VALID,917.908,VALID,0,VALID,98.6892,VALID,0,VALID,19.3213,VALID,211,VALID,0.352539,
2004-05-23, 03:12:00,VALID,917.91,VALID,0,VALID,98.7515,VALID,0.0509425,VALID,19.3339,VALID,199,VALID,0.39117,
2004-05-23, 03:13:00,VALID,917.91,VALID,0,VALID,98.8571,VALID,0.0679233,VALID,19.36,VALID,201,VALID,0.70476,
2004-05-23, 03:14:00,VALID,917.905,VALID,0,VALID,98.9486,VALID,0.0679233,VALID,19.3819,VALID,60,VALID,0.519259,
2004-05-23, 03:15:00,VALID,917.9,VALID,0,VALID,98.8762,VALID,0.0509425,VALID,19.3948,VALID,30,VALID,0.0179869,
2004-05-23, 03:16:00,VALID,917.9,VALID,0,VALID,98.8533,VALID,0.0679233,VALID,19.3988,VALID,30,VALID,0.0796131,
2004-05-23, 03:17:00,VALID,917.884,VALID,0,VALID,98.8774,VALID,0.0169808,VALID,19.4012,VALID,23,VALID,0.706659,
2004-05-23, 03:18:00,VALID,917.868,VALID,0,VALID,98.6752,VALID,0.0509425,VALID,19.3888,VALID,321,VALID,1.05741,
2004-05-23, 03:19:00,VALID,917.868,VALID,0,VALID,98.398,VALID,0.0339617,VALID,19.3466,VALID,342,VALID,1.31177,
2004-05-23, 03:20:00,VALID,917.856,VALID,0,VALID,98.384,VALID,0.0679233,VALID,19.3536,VALID,1,VALID,0.756055,
2004-05-23, 03:21:00,VALID,917.843,VALID,0,VALID,98.4603,VALID,0.0509425,VALID,19.3531,VALID,22,VALID,0.645712,
2004-05-23, 03:22:00,VALID,917.85,VALID,0,VALID,98.5087,VALID,0.0169808,VALID,19.3856,VALID,21,VALID,0.571911,
2004-05-23, 03:23:00,VALID,917.87,VALID,0,VALID,98.2963,VALID,0.0169808,VALID,19.3888,VALID,319,VALID,0.719922,
2004-05-23, 03:24:00,VALID,917.857,VALID,0,VALID,97.9606,VALID,0.0509425,VALID,19.3886,VALID,328,VALID,0.885231,
2004-05-23, 03:25:00,VALID,917.844,VALID,0,VALID,97.9034,VALID,0.0849042,VALID,19.405,VALID,16,VALID,1.58256,
2004-05-23, 03:26:00,VALID,917.842,VALID,0,VALID,97.7254,VALID,0.0509425,VALID,19.4308,VALID,13,VALID,2.06214,
2004-05-23, 03:27:00,VALID,917.816,VALID,0,VALID,97.6694,VALID,0.0169808,VALID,19.4499,VALID,20,VALID,1.65243,
2004-05-23, 03:28:00,VALID,917.796,VALID,0,VALID,97.6262,VALID,0.0339617,VALID,19.4732,VALID,14,VALID,1.61646,
2004-05-23, 03:29:00,VALID,917.793,VALID,0,VALID,97.5092,VALID,0.0849042,VALID,19.4693,VALID,356,VALID,1.22947,
2004-05-23, 03:30:00,VALID,917.774,VALID,0,VALID,97.4138,VALID,0.0679233,VALID,19.4688,VALID,14,VALID,1.44389,
2004-05-23, 03:31:00,VALID,917.776,VALID,0,VALID,97.3579,VALID,0.0339617,VALID,19.4889,VALID,7,VALID,1.10429,
2004-05-23, 03:32:00,VALID,917.783,VALID,0,VALID,97.2879,VALID,0.0169808,VALID,19.4723,VALID,8,VALID,1.17634,
2004-05-23, 03:33:00,VALID,917.771,VALID,0,VALID,97.2561,VALID,0.0679233,VALID,19.472,VALID,16,VALID,1.18887,
2004-05-23, 03:34:00,VALID,917.795,VALID,0,VALID,97.2879,VALID,0.0339617,VALID,19.4594,VALID,13,VALID,1.06016,
2004-05-23, 03:35:00,VALID,917.803,VALID,0,VALID,97.4113,VALID,0.0339617,VALID,19.4626,VALID,6,VALID,1.00286,
2004-05-23, 03:36:00,VALID,917.807,VALID,0,VALID,97.3134,VALID,0.0169808,VALID,19.4499,VALID,7,VALID,0.984375,
2004-05-23, 03:37:00,VALID,917.805,VALID,0,VALID,97.4647,VALID,0.0169808,VALID,19.4435,VALID,16,VALID,1.19131,